SCP
0 0 0 0 0 0 0 0 0 0 0 0 0 0 0 0 0 0 0 0 0 0 0 0 0 0 1 2 3 2 2 1 1 1 0 0 0 0 0 0 0 0 0 0
0 0 0 0 0 0 0 0 0 0 0 0 0 0 0 0 0 0 0 0 0 0 0 0 0 0 1 1 2 1 1 1 1 1 0 0 0 0 0 0 0 0 0 0
0 0 0 0 0 0 0 0 0 0 0 0 0 0 0 0 0 0 0 0 0 0 0 0 0 0 0 0 1 1 1 1 1 1 0 0 0 0 0 0 0 0 0 0
0 0 0 0 0 0 0 0 0 0 0 0 0 0 0 0 0 0 0 0 0 0 0 0 0 0 0 0 0 0 1 1 1 0 0 0 0 0 0 0 0 0 0 0
0 0 0 0 0 0 0 0 0 0 0 0 0 0 0 0 0 0 0 0 0 0 0 0 0 0 0 0 0 1 1 1 0 0 0 0 0 0 0 0 0 0 0 0
0 0 0 0 0 0 0 0 0 0 0 0 0 0 0 0 0 0 0 0 0 0 0 0 0 0 0 0 0 1 1 1 0 0 0 0 0 0 0 0 0 0 0 0
0 0 0 0 0 0 0 0 0 0 0 0 0 0 0 0 0 0 0 0 0 0 0 0 0 0 0 0 0 0 0 0 0 0 0 0 0 0 0 0 0 0 0 0
0 0 0 0 0 0 0 0 0 0 0 0 0 0 0 0 0 0 0 0 0 0 0 0 0 0 0 0 0 0 0 0 0 0 0 0 0 0 0 0 0 0 0 0
0 0 0 0 0 0 0 0 0 0 0 0 0 0 0 0 0 0 0 0 0 0 0 0 0 0 0 0 0 0 0 0 0 0 0 0 0 0 0 0 0 0 0 0
0 0 0 0 0 0 0 0 0 0 0 0 0 0 0 0 0 0 0 0 0 0 0 0 0 0 0 0 0 0 0 0 0 0 0 0 0 0 0 0 0 0 0 0
0 0 0 0 0 0 0 0 0 0 0 0 0 0 0 0 0 0 0 0 0 0 0 0 0 0 0 0 0 0 0 0 0 0 0 0 0 0 0 0 0 0 0 0
0 0 0 0 0 0 0 0 0 0 0 0 0 0 0 0 0 0 0 0 0 0 0 0 0 0 0 0 0 0 0 0 0 0 0 0 0 0 0 0 0 0 0 0
0 0 0 0 0 0 0 0 0 0 0 0 0 0 0 0 0 0 0 0 0 0 0 0 0 0 0 0 0 0 0 0 0 0 0 0 0 0 0 0 0 0 0 0
0 0 0 0 0 0 0 0 0 0 0 0 0 0 0 0 0 0 0 0 0 0 0 0 0 0 0 0 0 0 0 0 0 0 0 0 0 0 0 0 0 0 0 0
0 0 0 0 0 0 0 0 0 0 0 0 0 0 0 0 0 0 0 0 0 0 0 0 0 0 0 0 0 0 0 0 0 0 0 0 0 0 0 0 0 0 0 0
0 0 0 0 0 0 0 0 0 0 0 0 0 0 0 0 0 0 0 0 0 0 0 0 0 0 0 0 0 0 0 0 0 0 0 0 0 0 0 0 0 0 0 0
0 0 0 0 0 0 0 0 0 0 0 0 0 0 0 0 0 0 0 0 0 0 0 0 0 0 0 0 0 0 0 0 0 0 0 0 0 0 0 0 0 0 0 0
0 0 0 0 0 0 0 0 0 0 0 0 0 0 0 0 0 0 0 0 0 0 0 0 0 0 0 0 0 0 0 0 0 0 0 0 0 0 0 0 0 0 0 0
0 0 0 0 0 0 0 0 0 0 0 0 0 0 0 0 0 0 0 0 0 0 0 0 0 0 0 0 0 0 0 0 0 0 0 0 0 0 0 0 0 0 0 0
0 0 0 0 0 0 0 0 0 0 0 0 0 0 0 0 0 0 0 0 0 0 0 0 0 0 0 0 0 0 0 0 0 0 0 0 0 0 0 0 0 0 0 0
0 0 0 0 0 0 0 0 0 0 0 0 0 0 0 0 0 0 0 0 0 0 0 0 0 0 0 0 0 0 0 0 0 0 0 0 0 0 0 0 0 0 0 0
0 0 0 0 0 0 0 0 0 0 0 0 0 0 0 0 0 0 0 0 0 0 0 0 0 0 0 0 0 0 0 0 0 0 0 0 0 0 0 0 0 0 0 0
0 0 0 0 0 0 0 0 0 0 0 0 0 0 0 0 0 0 0 0 0 0 0 0 0 0 0 0 0 0 0 0 0 0 0 0 0 0 0 0 0 0 0 0
0 0 0 0 0 0 0 0 0 0 0 0 0 0 0 0 0 0 0 0 0 0 0 0 0 0 0 0 0 0 0 0 0 0 0 0 0 0 0 0 0 0 0 0
0 0 0 0 0 0 0 0 0 0 0 0 0 0 0 0 0 0 0 0 0 0 0 0 0 0 0 0 0 0 0 0 0 0 0 0 0 0 0 0 0 0 0 0
0 0 0 0 0 0 0 0 0 0 0 0 0 0 0 0 0 0 0 0 0 0 0 0 0 0 0 0 0 0 0 0 0 0 0 0 0 0 0 0 0 0 0 0
0 0 0 0 0 0 0 0 0 0 0 0 0 0 0 0 0 0 0 0 0 0 0 0 0 0 0 0 0 0 0 0 0 0 0 0 0 0 0 0 0 0 0 0
Wind_Speed
4 4 3 5 7 6 7 7 8 8 8 11 7 6 5 4 5 6 6 6 6 6 7 7 7 6 6 6 6 5 4 3 4 3 3 2 2 2 2 2 3 3 3 3
3 4 4 7 9 8 8 7 8 8 11 7 5 3 4 4 5 5 6 6 6 7 7 7 8 7 7 6 6 5 4 3 3 3 2 1 1 1 1 1 2 3 3 4
3 3 4 8 8 8 5 5 6 9 9 4 4 5 5 5 4 5 6 6 7 7 7 7 7 7 7 7 6 5 4 3 3 2 1 1 1 1 1 1 2 2 3 3
1 2 5 7 1 4 5 5 6 6 5 4 6 6 4 4 4 5 6 6 7 6 7 6 6 7 6 6 5 4 4 3 2 1 1 0 1 1 1 1 2 2 2 2
1 2 8 7 3 4 4 6 5 6 6 5 4 4 4 3 3 5 6 6 6 6 6 6 6 6 6 6 4 4 4 4 2 1 1 1 1 1 1 1 1 1 2 3
3 3 7 6 2 1 2 5 4 4 5 3 1 3 5 4 4 5 5 5 5 5 5 5 6 5 5 5 4 4 4 4 2 1 1 1 1 1 1 1 2 2 2 2
4 5 10 5 1 2 3 6 2 3 4 3 4 6 6 5 5 4 5 5 5 4 4 5 6 5 4 5 5 5 4 3 3 2 2 2 2 2 2 2 3 3 3 3
5 5 10 3 5 6 7 3 2 3 3 4 5 5 5 5 5 5 5 5 4 4 5 5 5 4 4 5 6 5 3 3 3 3 2 2 3 2 2 3 4 3 3 3
10 10 5 5 6 5 3 3 3 3 4 3 4 5 5 5 5 4 4 4 4 4 5 5 4 4 4 5 5 4 3 3 3 3 3 2 2 2 2 3 3 2 2 2
6 8 6 6 5 4 4 5 4 4 4 3 5 5 5 5 5 5 4 4 4 3 4 5 5 4 4 4 4 3 3 3 3 2 2 3 2 2 2 2 2 2 2 2
7 7 5 6 8 7 5 4 4 4 4 5 5 5 5 5 5 5 4 4 3 3 4 5 4 4 4 4 4 3 3 3 3 2 2 2 2 2 1 1 1 2 2 2
9 7 6 7 5 5 5 5 5 5 5 4 5 5 5 5 5 4 4 3 3 3 4 4 4 4 4 3 2 2 2 2 2 2 2 2 2 3 5 3 4 4 3 3
8 5 5 6 4 4 5 5 5 6 6 5 4 4 4 4 4 4 3 3 3 4 4 4 3 4 4 3 2 1 1 1 1 1 1 1 1 2 2 4 5 5 4 4
5 3 4 5 5 5 5 4 4 4 4 4 4 3 3 3 3 3 4 4 4 3 3 3 3 4 4 2 2 1 1 1 1 1 1 1 1 1 1 1 1 2 3 4
7 7 7 5 4 4 3 3 3 4 4 4 3 3 3 3 4 4 4 3 2 2 3 3 3 4 3 2 1 1 1 1 1 1 1 1 1 1 1 1 1 1 1 2
4 4 5 5 6 6 4 5 5 6 5 4 4 4 4 4 4 4 3 2 2 3 3 3 3 4 2 1 1 1 0 1 1 1 1 1 1 1 1 1 1 1 1 1
4 5 6 6 7 6 6 6 6 6 5 5 5 4 3 3 3 3 3 3 3 3 3 3 3 3 1 1 0 0 0 0 1 1 1 1 1 1 1 1 1 1 0 0
8 7 7 6 6 6 6 6 5 5 5 4 3 2 2 3 4 4 3 2 2 2 2 3 2 2 1 0 0 0 1 0 0 0 1 1 1 1 1 1 1 1 1 1
5 5 5 5 5 5 5 5 5 4 4 3 3 4 4 4 4 3 2 1 1 2 3 2 2 0 0 0 1 1 1 1 1 0 1 1 1 1 1 1 1 1 1 1
3 3 3 3 3 4 4 4 4 3 3 3 3 3 3 3 2 2 2 2 3 2 2 1 0 0 1 1 1 1 1 1 1 1 1 1 1 1 1 1 1 1 1 1
4 3 3 3 3 3 4 4 4 4 3 3 4 4 3 3 2 1 1 2 3 2 1 1 1 1 1 1 1 1 1 1 1 1 1 1 1 1 0 0 1 1 1 1
3 3 4 3 3 3 3 3 3 3 3 3 3 3 2 2 2 1 2 2 2 1 0 0 0 1 1 2 1 1 1 1 1 1 1 1 1 1 1 1 1 1 1 1
3 3 4 4 3 3 2 2 3 3 3 3 3 3 3 3 2 2 2 1 1 1 0 1 1 1 3 2 1 1 1 1 1 1 0 0 1 1 1 1 1 1 1 0
3 3 3 2 2 2 2 2 2 2 2 2 2 3 3 2 1 2 1 2 1 1 1 1 1 2 3 2 1 1 1 1 1 0 0 0 0 0 1 1 1 0 1 1
3 3 2 2 3 3 3 2 1 1 1 1 2 2 2 2 2 2 1 1 1 1 1 1 1 2 2 1 1 1 1 1 1 1 0 0 0 0 0 0 0 0 0 1
3 3 3 3 3 2 2 2 2 2 2 1 1 1 1 1 1 1 1 1 1 1 1 1 0 1 1 1 1 1 1 0 0 0 0 0 0 0 0 0 1 1 1 1
2 2 1 1 2 2 2 3 3 3 3 3 2 2 2 2 2 1 2 1 1 1 1 1 0 0 1 1 1 1 1 0 0 0 0 0 0 1 1 1 1 1 1 1
Wind_Direction
266 277 261 248 243 224 213 210 218 244 252 269 268 272 282 291 304 309 314 324 325 322 320 322 325 322 316 314 309 310 306 297 287 267 256 249 226 214 206 186 179 176 176 177
296 291 274 274 258 236 235 231 235 258 270 267 275 277 280 287 296 300 307 311 313 315 318 319 319 319 320 317 312 314 307 294 291 266 237 209 217 203 178 172 162 159 170 179
269 312 332 274 242 214 212 213 203 230 250 290 295 283 273 274 280 283 292 300 303 305 305 306 308 313 316 311 313 318 312 298 293 282 240 204 222 164 153 146 143 154 170 177
269 10 246 245 239 194 203 239 225 243 262 261 266 277 268 253 263 282 293 299 298 300 304 307 309 312 313 315 319 326 327 320 320 322 335 7 112 130 139 128 141 149 154 161
155 254 278 283 243 186 195 262 232 233 262 279 295 312 287 259 269 274 280 288 290 292 297 304 309 312 318 323 329 337 333 330 332 342 1 53 88 105 96 106 106 122 137 127
165 210 247 257 258 195 118 276 241 216 243 266 339 300 281 303 300 294 297 298 301 306 311 312 313 320 323 324 334 334 327 321 327 353 42 55 63 58 55 86 93 84 89 105
199 232 262 256 228 123 178 252 261 217 226 215 222 239 276 300 296 292 297 302 309 314 313 311 318 327 330 334 329 324 326 337 356 27 52 57 53 57 75 82 85 81 78 76
176 212 251 198 143 187 224 260 255 242 232 232 251 272 283 288 291 298 304 307 310 311 312 316 326 334 336 331 328 335 349 8 17 29 38 47 65 62 69 85 90 89 85 75
196 217 242 188 200 221 208 234 244 243 248 241 256 267 277 285 288 289 291 297 305 306 312 320 326 335 329 325 335 349 7 19 27 33 38 45 71 80 72 80 92 95 99 94
248 258 250 241 244 249 233 235 246 243 247 238 248 261 273 281 287 291 289 291 299 308 312 316 322 328 324 329 341 6 13 12 28 43 39 40 45 65 84 87 94 97 101 100
252 268 286 254 232 235 234 237 253 260 254 242 243 256 258 268 276 280 284 287 293 293 294 301 314 319 327 339 351 8 17 17 26 37 47 45 40 41 56 62 98 118 114 115
232 227 216 249 237 221 223 235 241 252 265 257 239 249 257 262 268 273 280 287 295 295 297 302 311 315 327 339 350 8 13 14 27 38 41 53 58 46 38 49 58 67 78 90
231 234 228 250 253 224 223 239 243 242 248 257 254 246 250 261 268 276 283 288 285 283 285 294 308 315 321 331 346 4 354 351 25 43 46 48 56 71 58 43 49 56 63 72
228 217 249 242 239 237 239 246 246 249 252 249 250 255 254 262 271 274 275 275 279 284 288 293 304 308 314 327 343 352 359 7 20 34 42 49 52 55 75 82 64 48 49 60
224 216 228 242 240 242 238 236 247 255 259 262 253 252 252 256 261 265 270 275 283 292 294 299 302 303 314 328 349 355 2 13 36 56 53 52 59 67 75 80 87 79 58 53
231 226 222 228 237 239 232 229 236 247 248 249 252 252 249 249 258 265 268 262 262 274 280 287 287 293 309 311 323 352 14 32 45 75 82 72 71 75 84 94 93 91 88 68
203 229 228 234 238 239 234 231 232 238 240 241 246 250 253 259 269 273 272 266 256 259 267 273 282 298 303 256 199 190 87 71 57 69 101 121 118 110 105 106 114 115 107 115
218 224 223 224 232 237 240 237 233 230 231 235 241 239 237 240 250 259 266 277 289 297 292 283 293 313 307 253 172 167 145 134 130 136 129 130 122 123 124 118 118 114 75 56
231 231 231 230 227 224 227 231 230 227 227 219 217 227 236 242 248 258 262 260 263 280 291 294 303 350 229 207 141 155 145 140 132 127 133 143 117 116 130 148 154 137 119 98
242 237 236 238 230 220 227 229 225 227 226 213 214 225 241 251 251 248 237 238 245 256 269 266 206 178 197 199 150 140 149 152 155 159 144 146 147 144 152 149 140 140 138 131
244 237 230 228 235 234 226 218 213 220 222 208 208 220 234 246 236 223 220 259 285 288 266 230 159 184 190 161 142 128 142 148 159 178 174 168 167 165 158 144 140 145 143 135
236 229 228 224 226 242 236 216 210 211 210 210 214 214 217 228 222 224 231 242 266 276 143 212 193 175 145 136 132 135 146 151 165 190 199 197 193 191 165 141 143 146 150 156
234 228 224 222 222 230 236 220 209 203 205 209 209 208 211 217 206 198 244 259 242 226 150 211 204 161 139 128 129 136 134 133 144 160 181 180 170 162 157 159 162 152 154 172
228 227 226 218 185 187 220 234 220 210 210 217 219 215 207 208 227 227 229 229 222 182 166 220 171 143 131 116 124 126 128 141 156 159 155 121 123 135 154 170 186 187 184 207
216 210 197 182 195 215 222 210 197 204 202 221 235 227 212 201 208 215 198 197 197 153 137 202 147 136 126 123 131 138 153 175 161 150 156 149 138 143 176 188 193 200 218 231
201 203 208 212 212 206 194 186 196 206 198 208 230 225 211 194 178 165 161 164 165 144 123 115 140 147 125 126 124 126 135 170 182 154 157 184 212 215 235 242 246 237 239 244
196 192 189 212 222 202 192 191 197 204 200 198 210 210 189 175 165 159 152 144 136 128 115 108 110 113 112 118 116 114 117 119 112 113 143 182 221 241 245 242 248 249 250 253